This demonstration page uses our WeatherBlox Daily Observations layout. Learn more.

Hourly Observations for September 21, 2019

Temp ( °F °C ) Dew Point ( °F °C ) Humidity (%) Winds ( mph kmh ) Pressure ( in mb ) Visibility ( mi km ) Precip ( " mm )
12:15 am 00:15 Clear 71 21.5 68 20.2 92 92 SSE 14 22 29.72 1006 10 16.0934 0 0
12:35 am 00:35 Clear 70 21.2 68 20.1 93 93 S 16 26 29.72 1006 10 16.0934 0 0
12:55 am 00:55 Clear 70 21.3 68 20.2 93 93 S 14 22 29.72 1006 10 16.0934 0 0
1:15 am 01:15 Clear 70 21.1 68 20.1 94 94 S 14 22 29.71 1006 10 16.0934 0 0
1:35 am 01:35 Clear 70 21 68 20.1 95 95 S 14 22 29.71 1006 10 16.0934 0 0
1:55 am 01:55 Clear 70 21 68 20.1 95 95 S 12 19 29.71 1006 10 16.0934 0 0
2:15 am 02:15 Clear 70 21 68 20.1 95 95 S 12 19 29.71 1006 10 16.0934 0 0
2:35 am 02:35 Clear 70 21 68 20.2 95 95 S 13 20 29.71 1006 10 16.0934 0 0
2:55 am 02:55 Clear 69 20.8 68 20.2 96 96 S 13 20 29.7 1006 10 16.0934 0 0
3:15 am 03:15 Clear 69 20.8 69 20.3 97 97 S 13 20 29.69 1005 10 16.0934 0 0
3:35 am 03:35 Partly Cloudy 69 20.8 69 20.5 98 98 S 13 20 29.68 1005 10 16.0934 0 0
3:55 am 03:55 Partly Cloudy 70 21.1 69 20.6 97 97 S 13 20 29.68 1005 10 16.0934 0 0
4:15 am 04:15 Mostly Cloudy 71 21.6 69 20.6 94 94 SSW 14 22 29.68 1005 10 16.0934 0 0
4:35 am 04:35 Cloudy 72 22 69 20.5 91 91 SSW 14 22 29.69 1005 10 16.0934 0 0
4:55 am 04:55 Cloudy 71 21.8 68 20.2 91 91 S 16 26 29.69 1006 10 16.0934 0 0
5:15 am 05:15 Partly Cloudy 71 21.6 68 20 91 91 S 17 28 29.69 1006 10 16.0934 0 0
5:35 am 05:35 Clear 71 21.5 67 19.7 90 90 SSW 17 28 29.69 1005 10 16.0934 0 0
5:55 am 05:55 Partly Cloudy 70 21 67 19.5 91 91 SSW 13 20 29.69 1005 10 16.0934 0 0
6:15 am 06:15 Partly Cloudy 69 20.8 67 19.5 92 92 SSW 12 19 29.69 1005 10 16.0934 0 0
6:35 am 06:35 Partly Cloudy 69 20.6 67 19.3 92 92 SSW 12 19 29.69 1006 10 16.0934 0 0
6:55 am 06:55 Clear 69 20.3 66 19.1 93 93 SSW 10 17 29.71 1006 10 16.0934 0 0
7:15 am 07:15 Clear 68 20 66 19 94 94 SSW 10 17 29.71 1006 10 16.0934 0 0
7:35 am 07:35 Sunny 68 19.8 66 19 95 95 S 8 13 29.72 1006 10 16.0934 0 0
7:55 am 07:55 Sunny 67 19.6 66 19 96 96 SSW 7 11 29.73 1007 10 16.0934 0 0
8:15 am 08:15 Sunny 68 20 66 19.1 95 95 SSW 7 11 29.74 1007 10 16.0934 0 0
8:35 am 08:35 Sunny 69 20.3 67 19.2 93 93 SSW 7 11 29.74 1007 10 16.0934 0 0
8:55 am 08:55 Sunny 70 20.9 67 19.5 92 92 SW 6 9 29.74 1007 10 16.0934 0 0
9:15 am 09:15 Sunny 71 21.5 67 19.4 88 88 SW 5 7 29.74 1007 10 16.0934 0 0
9:35 am 09:35 Sunny 72 22.1 67 19.5 85 85 WSW 3 6 29.74 1007 10 16.0934 0 0
9:55 am 09:55 Sunny 73 22.7 67 19.5 82 82 W 5 7 29.74 1007 10 16.0934 0 0
10:15 am 10:15 Sunny 74 23.5 67 19.7 79 79 WNW 6 9 29.74 1007 10 16.0934 0 0
10:35 am 10:35 Sunny 75 23.9 67 19.5 76 76 W 3 6 29.75 1007 10 16.0934 0 0
10:55 am 10:55 Partly Cloudy 76 24.4 67 19.6 75 75 NW 5 7 29.75 1008 10 16.0934 0 0
11:15 am 11:15 Partly Cloudy 77 25 68 20 74 74 NNW 5 7 29.75 1007 10 16.0934 0 0
11:35 am 11:35 Partly Cloudy 78 25.3 68 19.9 72 72 NW 6 9 29.74 1007 10 16.0934 0 0
11:55 am 11:55 Partly Cloudy 78 25.7 68 19.9 70 70 NW 9 15 29.74 1007 10 16.0934 0 0
12:15 pm 12:15 Mostly Cloudy 79 25.9 67 19.7 69 69 NNW 8 13 29.74 1007 10 16.0934 0 0
12:35 pm 12:35 Partly Cloudy 79 26.2 67 19.5 67 67 NNW 9 15 29.74 1007 10 16.0934 0 0
12:55 pm 12:55 Partly Cloudy 80 26.9 67 19.5 64 64 NW 9 15 29.72 1007 10 16.0934 0 0
1:15 pm 13:15 Partly Cloudy 81 27.2 66 18.7 60 60 N 10 17 29.73 1007 10 16.0934 0 0
1:35 pm 13:35 Sunny 82 27.5 63 17 53 53 N 9 15 29.73 1007 10 16.0934 0 0
1:55 pm 13:55 Sunny 82 27.6 60 15.8 49 49 NNW 10 17 29.73 1007 10 16.0934 0 0
2:15 pm 14:15 Sunny 82 28 61 15.9 48 48 NNW 10 17 29.72 1007 10 16.0934 0 0
2:35 pm 14:35 Sunny 83 28.1 58 14.5 43 43 N 13 20 29.72 1007 10 16.0934 0 0
2:55 pm 14:55 Sunny 83 28.3 57 13.8 41 41 N 8 13 29.72 1006 10 16.0934 0 0
3:15 pm 15:15 Sunny 83 28.5 55 12.9 38 38 N 8 13 29.72 1006 10 16.0934 0 0
3:35 pm 15:35 Sunny 83 28.6 53 11.9 36 36 NNE 10 17 29.72 1006 10 16.0934 0 0
3:55 pm 15:55 Sunny 84 28.7 53 11.9 35 35 NNE 8 13 29.71 1006 10 16.0934 0 0
4:15 pm 16:15 Sunny 84 28.7 52 11.3 34 34 N 9 15 29.71 1006 10 16.0934 0 0
4:35 pm 16:35 Sunny 83 28.6 51 10.8 33 33 NNE 8 13 29.71 1006 10 16.0934 0 0
4:55 pm 16:55 Sunny 83 28.5 51 10.8 33 33 N 8 13 29.71 1006 10 16.0934 0 0
5:15 pm 17:15 Sunny 83 28.5 51 10.3 32 32 N 8 13 29.71 1006 10 16.0934 0 0
5:35 pm 17:35 Sunny 83 28.2 51 10.4 33 33 N 6 9 29.71 1006 10 16.0934 0 0
5:55 pm 17:55 Sunny 82 28 49 9.5 31 31 NNE 7 11 29.71 1006 10 16.0934 0 0
6:15 pm 18:15 Sunny 82 27.5 51 10.3 34 34 NE 5 7 29.72 1006 10 16.0934 0 0
6:35 pm 18:35 Sunny 80 26.5 53 11.8 40 40 NE 6 9 29.72 1006 10 16.0934 0 0
6:55 pm 18:55 Sunny 77 25.1 55 12.7 46 46 NE 5 7 29.74 1007 10 16.0934 0 0
7:15 pm 19:15 Sunny 74 23.6 55 13 52 52 N 6 9 29.75 1007 10 16.0934 0 0
7:35 pm 19:35 Partly Cloudy 74 23.1 49 9.2 41 41 N 7 11 29.75 1008 10 16.0934 0 0
7:55 pm 19:55 Clear 72 22.2 45 7.4 39 39 N 8 13 29.76 1008 10 16.0934 0 0
8:15 pm 20:15 Clear 69 20.4 47 8.4 46 46 N 7 11 29.76 1008 10 16.0934 0 0
8:35 pm 20:35 Clear 66 18.7 48 9 53 53 N 7 11 29.78 1008 10 16.0934 0 0
8:55 pm 20:55 Clear 64 17.5 49 9.5 60 60 N 5 7 29.8 1009 10 16.0934 0 0
9:15 pm 21:15 Mostly Cloudy 64 17.6 50 10 61 61 N 7 11 29.81 1009 10 16.0934 0 0
9:35 pm 21:35 Partly Cloudy 64 17.8 48 9.1 57 57 N 9 15 29.8 1009 10 16.0934 0 0
9:55 pm 21:55 Clear 64 17.6 49 9.2 58 58 NNE 8 13 29.8 1009 10 16.0934 0 0
10:15 pm 22:15 Clear 65 18.3 48 8.9 54 54 N 9 15 29.8 1009 10 16.0934 0 0
10:35 pm 22:35 Mostly Cloudy 65 18.2 48 9.1 56 56 ENE 7 11 29.82 1010 10 16.0934 0 0
10:55 pm 22:55 Mostly Cloudy 64 17.6 49 9.5 59 59 NE 8 13 29.83 1010 10 16.0934 0 0
11:15 pm 23:15 Cloudy 65 18.4 49 9.5 56 56 ESE 10 17 29.85 1011 10 16.0934 0 0
11:35 pm 23:35 Mostly Cloudy 66 19.1 49 9.2 53 53 ENE 7 11 29.84 1011 10 16.0934 0 0
11:55 pm 23:55 Mostly Cloudy 65 18.6 50 9.8 57 57 NE 8 13 29.83 1010 10 16.0934 0 0

Powered by AerisWeather